Flag for U.S.A. Weather past 2 weeks in Dover, Delaware, U.S.A.

Now
40 °F

Passing clouds.


Feels Like: 37 °F
Forecast: 20 / 40 °F
Wind: 5 mph from Southwest

Location: Dover Air Force Base

Current Time: Feb 1, 2015 at 1:31:48 PM

Latest Report: Feb 1, 2015 at 12:58 PM


Visibility: 10 mi

Pressure: 30.21 "Hg

Humidity: 44%

Dew point: 20 °F

Location of DoverLocation

Historic Weather in Dover — Graph

°F

Dover temperature yesterday

Maximum temperature yesterday: 30 °F (at 3:58 PM)
Minimum temperature yesterday: 16 °F (at 6:58 AM)
Average temperature yesterday: 22 °F

Past Weeks' High & Low Weather Summary

 TemperatureHumidityPressure
High49 °F (Jan 25, 12:58 PM)100% (Jan 18, 3:58 AM)30.38 "Hg (Jan 18, 3:58 AM)
Low16 °F (Jan 31, 6:58 AM)31% (Jan 28, 3:58 PM)29.35 "Hg (Jan 24, 1:58 PM)
Average33 °F78%30.00 "Hg
* Reported Jan 17 11:58 AM — Feb 1 11:58 AM, Dover, Weather by CustomWeather, © 2014

Note: Actual official high and low records may vary slightly from our data, if they occured in-between our weather recording intervals... More about our weather records

Advertising

Dover weather history for previous 24 hours

 ConditionsComfort  
Time TempWeatherWind HumidityBarometerVisibility
11:58 AM
Feb 1
39 °FScattered clouds.7 mph47%30.25 "Hg10 mi
10:58 AM38 °FScattered clouds.5 mph44%30.28 "Hg10 mi
9:58 AM33 °FScattered clouds.5 mph50%30.29 "Hg10 mi
8:58 AM28 °FScattered clouds.7 mph70%30.29 "Hg10 mi
7:58 AM24 °FOvercast.6 mph77%30.29 "Hg10 mi
6:58 AM22 °FMostly cloudy.6 mph83%30.28 "Hg10 mi
5:58 AM19 °FClear.5 mph89%30.28 "Hg10 mi
4:58 AM18 °FClear.3 mph85%30.28 "Hg10 mi
3:58 AM20 °FClear.5 mph79%30.28 "Hg10 mi
2:58 AM19 °FClear.5 mph78%30.29 "Hg10 mi
1:58 AM21 °FClear.5 mph67%30.28 "Hg10 mi
12:58 AM22 °FClear.5 mph62%30.28 "Hg10 mi
11:58 PM
Jan 31
21 °FClear.2 mph63%30.29 "Hg10 mi
10:58 PM21 °FClear.5 mph71%30.28 "Hg10 mi
9:58 PM24 °FClear.2 mph55%30.28 "Hg10 mi
8:58 PM24 °FClear.5 mph53%30.29 "Hg10 mi
7:58 PM25 °FClear.6 mph52%30.29 "Hg10 mi
6:58 PM26 °FClear.8 mph49%30.28 "Hg10 mi
5:58 PM27 °FClear.14 mph44%30.26 "Hg10 mi
4:58 PM29 °FSunny.16 mph38%30.24 "Hg10 mi
3:58 PM30 °FSunny.16 mph37%30.23 "Hg10 mi
2:58 PM29 °FSunny.15 mph37%30.23 "Hg10 mi
1:58 PM28 °FSunny.20 mph37%30.23 "Hg10 mi
Weather by CustomWeather, © 2014

See weather overviewHow to use our weather pages